Flight Track Log - Related Links

Times and Time Zones

All times are in EDT time to prevent confusion due to time zone crossing. See the N682RW flight status page for this flight to view local times or setup timezone preferences in your user account.

Time Position Orientation Groundspeed Altitude Reporting Facility
EDT Latitude Longitude Course Direction KTS MPH feet Rate Location/Type
Sat 05:20:20 PM 41.8000 -87.6833 84° East 205 236 2,900  Level Chicago TRACON
Sat 05:21:38 PM 41.8081 -87.5808 84° East 232 267 5,000 2,057 Climbing Chicago Center
Sat 05:22:40 PM 41.8061 -87.4783 91° East 257 296 7,700 2,829 Climbing Chicago Center
Sat 05:23:41 PM 41.7878 -87.3703 103° East 290 334 10,800 3,268 Climbing Chicago Center
Sat 05:24:43 PM 41.7792 -87.2350 95° East 302 348 14,400 2,516 Climbing Chicago Center
Sat 05:25:45 PM 41.7658 -87.1078 98° East 333 383 16,000 1,902 Climbing Chicago Center
Sat 05:26:46 PM 41.7611 -86.9617 92° East 379 436 18,300 1,463 Climbing Chicago Center
Sat 05:27:48 PM 41.7647 -86.8083 88° East 406 467 19,000 341 Climbing Chicago Center
Sat 05:28:49 PM 41.7903 -86.6581 77° East 406 467 19,000  Level Chicago Center
Sat 05:29:51 PM 41.8139 -86.5081 78° East 409 471 19,000  Level Chicago Center
Sat 05:30:53 PM 41.8361 -86.3600 79° East 406 467 19,000  Level Chicago Center
Sat 05:31:54 PM 41.8592 -86.2108 78° East 407 468 19,000  Level Chicago Center
Sat 05:32:56 PM 41.8806 -86.0614 79° East 408 470 19,000  Level Chicago Center
Sat 05:33:57 PM 41.9028 -85.9119 79° East 407 468 19,000  Level Chicago Center
Sat 05:34:59 PM 41.9289 -85.7325 79° East 406 467 19,000  Level Chicago Center
Sat 05:36:01 PM 41.9517 -85.5833 78° East 405 466 19,000  Level Chicago Center
Sat 05:37:02 PM 41.9725 -85.4325 79° East 406 467 19,000  Level Chicago Center
Sat 05:38:04 PM 41.9928 -85.2819 80° East 407 468 19,000  Level Chicago Center
Sat 05:39:06 PM 42.0144 -85.1208 80° East 410 472 19,000  Level Chicago Center
Sat 05:39:56 PM 42.0331 -85.0092 77° East 409 471 19,000 -55 Level Cleveland Center
Sat 05:40:56 PM 42.0511 -84.8594 81° East 409 471 18,900 -750 Descending Cleveland Center
Sat 05:41:56 PM 42.0397 -84.7158 96° East 402 463 17,500 -1,550 Descending Cleveland Center
Sat 05:42:56 PM 41.9753 -84.5972 126° Southeast 373 429 15,800 -1,750 Descending Cleveland Center
Sat 05:43:56 PM 41.9125 -84.4817 126° Southeast 373 429 14,000 -1,672 Descending Cleveland Center
Sat 05:44:58 PM 41.8839 -84.3375 105° East 373 429 12,400 -1,000 Descending Cleveland Center
Sat 05:45:56 PM 41.8569 -84.2019 105° East 361 415 12,000 -254 Descending Cleveland Center
Sat 05:46:56 PM 41.8297 -84.0694 105° East 366 421 11,900 -50 Descending Cleveland Center
Sat 05:47:56 PM 41.8667 -83.9517 67° East 327 376 11,900 -500 Level Cleveland Center
Sat 05:48:56 PM 41.9453 -83.8972 27° Northeast 290 334 10,900 -1,300 Descending Cleveland Center
Sat 05:49:56 PM 41.9672 -83.7922 74° East 274 315 9,300 -1,512 Descending Cleveland Center
Sat 05:51:03 PM 41.9661 -83.6803 91° East 238 274 7,700 -1,600 Descending Cleveland Center
Sat 05:51:56 PM 41.9722 -83.6025 84° East 255 293 6,100 -1,487 Descending Cleveland Center
Sat 05:52:56 PM 41.9850 -83.5192 78° East 243 280 4,900 -950 Descending Cleveland Center
Sat 05:53:56 PM 42.0342 -83.4711 36° Northeast 204 235 4,200 -870 Descending Cleveland Center
Sat 05:55:07 PM 42.0936 -83.4289 28° Northeast 188 216 3,000 -1,000 Descending Cleveland Center
Sat 05:56:08 PM 42.1361 -83.3972 29° Northeast 148 170 2,000 -836 Descending Cleveland Center
Sat 05:57:09 PM 42.1700 -83.3708 30° Northeast 140 161 1,300 -689 Descending Cleveland Center
Sat 05:59:00 PM 42.2000 -83.3500 27° Northeast  Level FlightAware Approximate

Login

Don't have an account? Register now (free) for customized features, flight alerts, and more!